Regional Weather Roundup
Issued by NWS

Home | Current Version | Previous Version | Text Only | Print | Product List | Glossary Off
Versions: 1 2 3 4 5 6 7 8 9 10 11 12 13 14 15 16 17 18 19 20 21 22 23 24 25 26 27 28 29 30 31 32 33 34 35 36 37 38 39 40 41 42 43 44 45 46 47 48 49 50

000
ASUS43 KMKX 232200
RWRWI

WISCONSIN REGIONAL WEATHER ROUNDUP
NATIONAL WEATHER SERVICE MILWAUKEE/SULLIVAN WI
500 PM CDT THU MAR 23 2017

NOTE: "FAIR" INDICATES FEW OR NO CLOUDS BELOW 12,000 FEET WITH NO
SIGNIFICANT WEATHER AND/OR OBSTRUCTIONS TO VISIBILITY.

WIZ001-002-006>008-014>016-023>028-232300-
NORTHWEST WISCONSIN

CITY           SKY/WX    TMP DP  RH WIND       PRES   REMARKS
SUPERIOR ARPT  CLOUDY    37  26  67 S9G16     29.93F WCI  30
ASHLAND        CLOUDY    38  25  59 S8        29.96R WCI  32
HAYWARD        CLOUDY    37  24  59 SE10      29.87F WCI  30
SIREN          LGT RAIN  36  28  72 SE10G20   29.83F WCI  28
CUMBERLAND     LGT RAIN  36  27  69 SE17      29.88F WCI  25
RICE LAKE      CLOUDY    39  23  53 S7        29.99R WCI  34
CHETEK         CLOUDY    39  23  52 SE10G16   29.98R WCI  32
LADYSMITH      CLOUDY    38  24  56 S9        30.00R WCI  32
EAU CLAIRE     NOT AVBL
MENOMONIE      CLOUDY    41  26  54 SE7       29.97R
NEW RICHMOND   CLOUDY    40  24  54 SE9       29.92F WCI  33
OSCEOLA        CLOUDY    40  28  60 SE14G23   29.90F WCI  33
$$

WIZ003>005-009-010-017-018-232300-
NORTH CENTRAL WISCONSIN

CITY           SKY/WX    TMP DP  RH WIND       PRES   REMARKS
MANITOWISH WTR CLOUDY    36  21  55 S12G18    29.94F WCI  28
ARBOR VITAE    CLOUDY    37  21  53 S13G20    29.94F WCI  28
WOODRUFF       CLOUDY    37  21  53 S13G20    29.94F WCI  28
RHINELANDER    CLOUDY    38  21  50 SE12G21   29.98F WCI  30
EAGLE RIVER    CLOUDY    36  17  47 SE10      29.97F WCI  28
LAND O LAKES   CLOUDY    37  18  47 S13G18    29.99F WCI  28
PHILLIPS       CLOUDY    37  23  56 S9        29.96F WCI  30
TOMAHAWK       CLOUDY    38  21  50 SE7       29.97F WCI  32
MEDFORD        CLOUDY    37  21  53 SE16G22   29.95F WCI  27
MERRILL        CLOUDY    40  20  44 S13G20    29.98F WCI  32
$$

WIZ029-030-035-036-043>047-232300-
CENTRAL WISCONSIN

CITY           SKY/WX    TMP DP  RH WIND       PRES   REMARKS
WAUSAU         CLOUDY    39  20  46 SE16G23   29.95F WCI  30
MOSINEE        NOT AVBL
MARSHFIELD     CLOUDY    41  22  46 SE18G24   29.93F
STEVENS POINT  CLOUDY    38  21  49 SE12G17   30.01F WCI  31
WAUPACA        CLOUDY    43  23  45 SE7       30.09F
WAUTOMA        CLOUDY    44  23  43 SE14      30.00F
WISC RAPIDS    CLOUDY    42  21  43 SE16G24   29.94F
CAMP DOUGLAS   NOT AVBL
$$

WIZ011>013-019>022-031-037>040-048>050-232300-
NORTHEAST WISCONSIN

CITY           SKY/WX    TMP DP  RH WIND       PRES   REMARKS
ANTIGO         CLOUDY    35  24  63 SE17      30.02F WCI  25
SHAWANO        CLOUDY    41  26  53 SE12      30.10F
OCONTO         CLOUDY    35  26  67 S9        30.14F WCI  28
STURGEON BAY   CLOUDY    35  25  66 S17G24    30.14F WCI  25
GREEN BAY      CLOUDY    37  28  70 SE16      30.11F WCI  28
MANITOWOC      NOT AVBL
APPLETON       CLOUDY    37  23  56 SE12G18   30.09F WCI  30
CLINTONVILLE   CLOUDY    41  23  48 SE8       30.09F
OSHKOSH        CLOUDY    40  27  59 SE12      30.08F WCI  33
$$

WIZ032>034-041-042-053>061-232300-
SOUTHWEST WISCONSIN

CITY           SKY/WX    TMP DP  RH WIND       PRES   REMARKS
LA CROSSE      CLOUDY    44  31  60 SE9       29.96R
SPARTA         CLOUDY    44  25  47 SE15G23   29.89F
VIROQUA        PTSUNNY   39  29  68 SE38G47   29.74F WCI  26
BOSCOBEL       CLOUDY    44  27  51 SE8G18    29.95F
PRAIRIE DU CHI CLOUDY    42  30  63 SE8G20    29.97F
PLATTEVILLE    CLOUDY    41  29  61 SE15G22   30.05F
$$

WIZ056-057-062-063-064-067-068-232300-
SOUTH CENTRAL WISCONSIN

CITY           SKY/WX    TMP DP  RH WIND       PRES   REMARKS
REEDSBURG      CLOUDY    43  23  44 SE9G18    30.03F
BARABOO/DELLS  CLOUDY    43  20  39 S17G23    30.04F
LONE ROCK      NOT AVBL
MINERAL POINT  CLOUDY    43  27  52 SE15      30.06S
MADISON        CLOUDY    44  20  38 S17       30.07F
MIDDLETON      CLOUDY    45  23  42 S15       30.08F
WATERTOWN      CLOUDY    45  20  37 S8        30.11F
MONROE         CLOUDY    41  25  52 S14G21    30.10S
JANESVILLE     CLOUDY    46  21  36 SE14      30.10F
$$

WIZ051-052-058>065-066-070>072-232300-
SOUTHEAST WISCONSIN

CITY           SKY/WX    TMP DP  RH WIND       PRES   REMARKS
MILWAUKEE      CLOUDY    41  24  51 S17       30.16F
WAUKESHA       CLOUDY    37  23  56 SE13G18   30.15F WCI  29
MILWAUKEE/TIMM CLOUDY    39  19  45 SE14      30.16F WCI  31
RACINE         CLOUDY    39  26  59 SE13G23   30.17F WCI  31
KENOSHA        CLOUDY    41  25  53 SE13      30.15F
FOND DU LAC    CLOUDY    42  27  55 SE10      30.09F
SHEBOYGAN      CLOUDY    36  25  64 S16G23    30.15F WCI  26
WEST BEND      CLOUDY    37  27  65 SE10      30.14F WCI  30
JUNEAU         CLOUDY    45  22  41 S10       30.12F
$$

LSZ147-162-232300-
LAKE SUPERIOR

STATION/POSITION TIME  TEMP    WIND        PRES    WAVE
                       AIR SEA DIR/SP/G            HT/PER
                 (UTC) (F)     (DEG/KT/KT) (MB)    (FT/S)
DEVILS ISLAND    2100   35     170/  6/  8 1015.4F
PORT WING        2140   38     190/  4/  7 1014.6R
SAXON HARBOR     2140   41     190/  6/  9 1014.6R
$$

LMZ867-665-643>646-232300-
LAKE MICHIGAN

STATION/POSITION TIME  TEMP    WIND        PRES    WAVE
                       AIR SEA DIR/SP/G            HT/PER
                 (UTC) (F)     (DEG/KT/KT) (MB)    (FT/S)
CHAMBERS ISLAND  2140   35     170/  8/ 14 1020.3F
NORTHPORT PIER   2140   35     160/ 10/ 17 1021.0F
SISTER BAY       2035   34     190/ 20/ 28   N/A
KEWAUNEE LAKESHO 2130   35     180/ 20/ 23 1021.0F
SHEBOYGAN LAKESH 2100   36     170/ 23/ 26 1022.4F
PORT WASHINGTON  2130   37     170/ 13/ 17 1022.7F
MILWAUKEE LAKESH 2120   36     160/ 18/ 20   N/A
KENOSHA   LAKESH 2100   38     140/ 17/ 19 1021.7
$$

TC  - TEMPERATURE IN CELSIUS
VSB - VISIBILITY IN STATUTE MILES
WCI - WIND CHILL INDEX
HX  - HEAT INDEX





USA.gov is the U.S. government's official web portal to all federal, state and local government web resources and services.